Home   Weather   Bielefeld   Past weeks

Flag for Germany Past Weather in Bielefeld, North Rhine-Westphalia, Germany — Yesterday and Last 2 Weeks

Now
25 °F

Broken clouds.


Feels Like: 20 °F
Forecast: 23 / 33 °F
Wind: 3 mph from North

Location: Bueckeburg

Current Time: Jan 18, 2017 at 11:21:57 am

Latest Report: Jan 18, 2017 at 10:20 am


Visibility: 4 mi

Pressure: 30.74 "Hg

Humidity: 86%

Dew Point: 21 °F

Location of BielefeldLocation

Past Weather in Bielefeld — Graph

°F

Bielefeld Temperature Yesterday

Maximum temperature yesterday: 27 °F (at 12:20 am)
Minimum temperature yesterday: 25 °F (at 4:20 am)
Average temperature yesterday: 26 °F

High & Low Weather Summary for the Past Weeks

 TemperatureHumidityPressure
High43 °F (Jan 4, 4:20 am)100% (Jan 4, 1:20 am)30.77 "Hg (Jan 4, 1:20 am)
Low14 °F (Jan 6, 8:20 am)55% (Jan 5, 2:20 pm)28.91 "Hg (Jan 13, 4:20 am)
Average33 °F88%30.06 "Hg
* Reported Jan 3 9:20 am — Jan 18 9:20 am, Bielefeld, Weather by CustomWeather, © 2017

Note: Actual official high and low records may vary slightly from our data, if they occured in-between our weather recording intervals... More about our weather records

Advertising

Bielefeld Weather History for the Previous 24 Hours

Scroll right to see more
 ConditionsComfort  
Time TempWeatherWind HumidityBarometerVisibility
9:20 am
Wed, Jan 18
25 °FBroken clouds.6 mph86%30.72 "Hg4 mi
8:20 am25 °FIce fog.7 mph93%30.72 "Hg3 mi
7:20 am25 °FIce fog.3 mph93%30.72 "Hg3 mi
6:53 am23 °FIce fog.3 mph100%30.69 "Hg3 mi
6:20 am23 °FIce fog.3 mph93%30.69 "Hg2 mi
5:20 am23 °FCold.2 mph93%30.69 "Hg3 mi
4:20 am23 °FCold.2 mph100%30.72 "Hg3 mi
3:20 am23 °FCold.2 mph100%30.72 "Hg3 mi
2:20 am27 °FChilly.3 mph93%30.72 "Hg3 mi
1:20 am27 °FChilly.2 mph93%30.69 "Hg3 mi
12:20 am27 °FChilly.5 mph93%30.69 "Hg2 mi
11:20 pm
Tue, Jan 17
27 °FChilly.2 mph93%30.69 "Hg1 mi
10:20 pm27 °FChilly.2 mph93%30.72 "Hg1 mi
9:57 pm27 °FIce fog.1 mph93%30.69 "Hg1 mi
9:20 pm27 °FIce fog.1 mph93%30.69 "Hg1 mi
8:20 pm27 °FIce fog.3 mph93%30.69 "Hg1 mi
7:56 pm27 °FIce fog.2 mph93%30.69 "Hg1 mi
7:20 pm27 °FIce fog.2 mph93%30.69 "Hg2 mi
6:20 pm27 °FIce fog.1 mph93%30.66 "Hg2 mi
5:20 pm27 °FIce fog.1 mph93%30.66 "Hg2 mi
4:20 pm27 °FIce fog.1 mph93%30.66 "Hg2 mi
3:20 pm27 °FIce fog.2 mph93%30.66 "Hg2 mi
3:05 pm27 °FIce fog.2 mph93%30.66 "Hg2 mi
2:20 pm25 °FIce fog.3 mph100%30.66 "Hg2 mi
1:20 pm25 °FIce fog.2 mph100%30.66 "Hg1 mi
12:44 pm25 °FIce fog.3 mph100%30.66 "Hg1 mi
12:20 pm27 °FIce fog.3 mph93%30.66 "Hg1 mi
11:20 am25 °FIce fog.5 mph100%30.63 "Hg1 mi
Weather by CustomWeather, © 2017

See weather overviewHow to use our weather pages